When you browse on this site, cookies collect data to enhance your experience and personalize the content and advertising you see.
Visit our Privacy Policy to learn more. By continuing to use the site, you agree to this use of cookies and data.
  • In France
  • List of Countries
  • For 7 days
  • Water Temperature
  • Weather Map
  • Weather Widgets
  • user-avatar
    Login

    Hourly Weather Homuty

    Today, 27 February, Thursday

    Time Temperature Precipitation Wind Pressure Humidity
    00:00 +2°C° 0.2 mm 2 mps 733 mmHg 97%
    01:00 +1°C° 0.2 mm 3 mps 733 mmHg 97%
    02:00 +2°C° 0 mm 2 mps 733 mmHg 98%
    03:00 +1°C° 0 mm 3 mps 733 mmHg 97%
    04:00 +1°C° 0 mm 3 mps 732 mmHg 97%
    05:00 0°C° 0 mm 4 mps 732 mmHg 96%
    06:00 0°C° 0.2 mm 4 mps 732 mmHg 96%
    07:00 0°C° 0.2 mm 5 mps 732 mmHg 96%
    08:00 0°C° 0.2 mm 5 mps 732 mmHg 96%
    09:00 +1°C° 0.1 mm 5 mps 732 mmHg 97%
    10:00 +1°C° 0.1 mm 5 mps 732 mmHg 97%
    11:00 +2°C° 0.1 mm 5 mps 732 mmHg 97%
    12:00 +2°C° 0.1 mm 5 mps 732 mmHg 97%
    13:00 +3°C° 0.1 mm 4 mps 732 mmHg 96%
    14:00 +3°C° 0.1 mm 4 mps 732 mmHg 96%
    15:00 +3°C° 0.3 mm 3 mps 732 mmHg 96%
    16:00 +2°C° 0.3 mm 3 mps 732 mmHg 97%
    17:00 +3°C° 0.3 mm 2 mps 732 mmHg 97%
    18:00 +3°C° 0.3 mm 2 mps 732 mmHg 97%
    19:00 +3°C° 0.3 mm 2 mps 732 mmHg 97%
    20:00 +3°C° 0.3 mm 2 mps 732 mmHg 97%
    21:00 +2°C° 0.4 mm 2 mps 732 mmHg 95%
    22:00 +2°C° 0.4 mm 2 mps 732 mmHg 94%
    23:00 +2°C° 0.4 mm 2 mps 732 mmHg 92%

    Tomorrow, 28 February, Friday

    Time Temperature Precipitation Wind Pressure Humidity
    00:00 +1°C° 0 mm 2 mps 733 mmHg 93%
    01:00 +1°C° 0 mm 2 mps 733 mmHg 93%
    02:00 +1°C° 0 mm 2 mps 733 mmHg 93%
    03:00 +1°C° 0 mm 2 mps 733 mmHg 93%
    04:00 +1°C° 0 mm 2 mps 733 mmHg 94%
    05:00 +1°C° 0 mm 2 mps 733 mmHg 94%
    06:00 0°C° 0 mm 3 mps 733 mmHg 92%
    07:00 0°C° 0 mm 3 mps 733 mmHg 90%
    08:00 0°C° 0 mm 3 mps 733 mmHg 88%
    09:00 0°C° 0 mm 3 mps 733 mmHg 85%
    10:00 -1°C° 0 mm 4 mps 733 mmHg 83%
    11:00 0°C° 0 mm 4 mps 733 mmHg 80%
    12:00 0°C° 0 mm 4 mps 733 mmHg 78%
    13:00 0°C° 0 mm 5 mps 734 mmHg 77%
    14:00 +1°C° 0 mm 5 mps 735 mmHg 75%
    15:00 0°C° 0 mm 5 mps 735 mmHg 74%
    16:00 -1°C° 0 mm 5 mps 736 mmHg 73%
    17:00 -1°C° 0 mm 4 mps 737 mmHg 72%
    18:00 -2°C° 0 mm 4 mps 737 mmHg 74%
    19:00 -2°C° 0 mm 4 mps 738 mmHg 77%
    20:00 -2°C° 0 mm 4 mps 738 mmHg 79%
    21:00 -2°C° 0 mm 4 mps 739 mmHg 79%
    22:00 -2°C° 0 mm 4 mps 739 mmHg 78%
    23:00 -4°C° 0 mm 5 mps 740 mmHg 78%

    Day after tomorrow, 29 February, Saturday

    Time Temperature Precipitation Wind Pressure Humidity
    00:00 -2°C° 0 mm 5 mps 740 mmHg 79%
    01:00 -2°C° 0 mm 5 mps 740 mmHg 79%
    02:00 -2°C° 0 mm 5 mps 741 mmHg 80%
    03:00 -4°C° 0 mm 5 mps 741 mmHg 81%
    04:00 -3°C° 0 mm 4 mps 741 mmHg 81%
    05:00 -3°C° 0 mm 4 mps 741 mmHg 81%
    06:00 -2°C° 0 mm 5 mps 742 mmHg 81%
    07:00 -2°C° 0 mm 5 mps 742 mmHg 80%
    08:00 -2°C° 0 mm 5 mps 742 mmHg 80%
    09:00 -2°C° 0 mm 6 mps 742 mmHg 76%
    10:00 -2°C° 0 mm 6 mps 743 mmHg 72%
    11:00 -1°C° 0 mm 6 mps 743 mmHg 69%
    12:00 -1°C° 0 mm 6 mps 743 mmHg 65%
    13:00 +1°C° 0 mm 5 mps 744 mmHg 61%
    14:00 +1°C° 0 mm 5 mps 744 mmHg 57%
    15:00 0°C° 0 mm 4 mps 744 mmHg 61%
    16:00 0°C° 0 mm 3 mps 745 mmHg 65%
    17:00 +1°C° 0 mm 2 mps 745 mmHg 70%
    18:00 -1°C° 0 mm 2 mps 745 mmHg 72%
    19:00 -1°C° 0 mm 2 mps 746 mmHg 74%
    20:00 -1°C° 0 mm 2 mps 746 mmHg 76%
    21:00 -1°C° 0 mm 2 mps 747 mmHg 77%
    22:00 -1°C° 0 mm 2 mps 747 mmHg 79%
    23:00 -2°C° 0 mm 2 mps 747 mmHg 81%

    1 March, Sunday

    Time Temperature Precipitation Wind Pressure Humidity
    00:00 -2°C° 0 mm 2 mps 748 mmHg 81%
    01:00 -2°C° 0 mm 2 mps 748 mmHg 82%
    02:00 -2°C° 0 mm 2 mps 748 mmHg 83%
    03:00 -2°C° 0 mm 2 mps 749 mmHg 83%
    04:00 -2°C° 0 mm 2 mps 749 mmHg 84%
    05:00 -2°C° 0 mm 2 mps 749 mmHg 84%
    06:00 -1°C° 0 mm 2 mps 749 mmHg 83%
    07:00 -1°C° 0 mm 3 mps 750 mmHg 81%
    08:00 -1°C° 0 mm 3 mps 750 mmHg 80%
    09:00 0°C° 0 mm 4 mps 750 mmHg 75%
    10:00 +1°C° 0 mm 4 mps 750 mmHg 71%
    11:00 +3°C° 0 mm 4 mps 750 mmHg 66%
    12:00 +2°C° 0 mm 5 mps 750 mmHg 64%
    13:00 +3°C° 0 mm 5 mps 750 mmHg 62%
    14:00 +3°C° 0 mm 5 mps 750 mmHg 59%
    15:00 +2°C° 0 mm 5 mps 749 mmHg 64%
    16:00 +1°C° 0 mm 5 mps 749 mmHg 69%
    17:00 0°C° 0 mm 4 mps 749 mmHg 74%
    18:00 0°C° 0 mm 5 mps 749 mmHg 75%
    19:00 -1°C° 0 mm 5 mps 749 mmHg 76%
    20:00 -2°C° 0 mm 6 mps 749 mmHg 77%
    21:00 -2°C° 0 mm 6 mps 749 mmHg 76%
    22:00 -2°C° 0 mm 6 mps 749 mmHg 74%
    23:00 -2°C° 0 mm 6 mps 749 mmHg 73%

    2 March, Monday

    Time Temperature Precipitation Wind Pressure Humidity
    00:00 -2°C° 0 mm 7 mps 748 mmHg 73%
    01:00 -2°C° 0 mm 7 mps 748 mmHg 73%
    02:00 -1°C° 0 mm 7 mps 748 mmHg 73%
    03:00 -1°C° 0 mm 7 mps 748 mmHg 73%
    04:00 -1°C° 0 mm 7 mps 748 mmHg 72%
    05:00 -1°C° 0 mm 7 mps 747 mmHg 72%
    06:00 -1°C° 0 mm 7 mps 747 mmHg 70%
    07:00 -1°C° 0 mm 7 mps 747 mmHg 69%
    08:00 -1°C° 0 mm 7 mps 748 mmHg 68%
    09:00 0°C° 0 mm 7 mps 748 mmHg 67%
    10:00 +2°C° 0 mm 7 mps 747 mmHg 65%
    11:00 +2°C° 0 mm 8 mps 747 mmHg 63%
    12:00 +2°C° 0 mm 8 mps 747 mmHg 63%
    13:00 +4°C° 0 mm 8 mps 747 mmHg 63%
    14:00 +4°C° 0 mm 8 mps 747 mmHg 62%
    15:00 +3°C° 0 mm 7 mps 747 mmHg 64%
    16:00 +3°C° 0 mm 6 mps 746 mmHg 65%
    17:00 +2°C° 0 mm 6 mps 746 mmHg 66%
    18:00 +2°C° 0 mm 6 mps 746 mmHg 67%
    19:00 +1°C° 0 mm 6 mps 746 mmHg 69%
    20:00 0°C° 0 mm 7 mps 746 mmHg 70%
    21:00 0°C° 0 mm 7 mps 746 mmHg 70%
    22:00 0°C° 0 mm 7 mps 746 mmHg 71%
    23:00 0°C° 0 mm 7 mps 746 mmHg 71%

    3 March, Tuesday

    Time Temperature Precipitation Wind Pressure Humidity
    00:00 0°C° 0 mm 7 mps 745 mmHg 73%
    01:00 0°C° 0 mm 7 mps 745 mmHg 75%
    02:00 -1°C° 0 mm 7 mps 745 mmHg 77%
    03:00 -1°C° 0 mm 7 mps 744 mmHg 79%
    04:00 -1°C° 0 mm 7 mps 744 mmHg 80%
    05:00 -1°C° 0 mm 8 mps 744 mmHg 81%
    06:00 -1°C° 0.1 mm 8 mps 744 mmHg 85%
    07:00 -1°C° 0.1 mm 8 mps 744 mmHg 89%
    08:00 -1°C° 0.1 mm 9 mps 743 mmHg 92%
    09:00 -1°C° 0.3 mm 8 mps 743 mmHg 93%
    10:00 -1°C° 0.3 mm 8 mps 743 mmHg 94%
    11:00 0°C° 0.3 mm 7 mps 743 mmHg 95%
    12:00 0°C° 0.2 mm 7 mps 744 mmHg 94%
    13:00 +2°C° 0.2 mm 6 mps 744 mmHg 93%
    14:00 +2°C° 0.2 mm 6 mps 744 mmHg 92%
    15:00 +2°C° 0.1 mm 5 mps 744 mmHg 93%
    16:00 +1°C° 0.1 mm 5 mps 744 mmHg 94%
    17:00 +1°C° 0.1 mm 5 mps 744 mmHg 95%
    18:00 +1°C° 0 mm 4 mps 745 mmHg 95%
    19:00 +1°C° 0 mm 4 mps 745 mmHg 96%
    20:00 +2°C° 0 mm 3 mps 746 mmHg 96%
    21:00 +2°C° 0 mm 3 mps 746 mmHg 96%
    22:00 +3°C° 0 mm 2 mps 746 mmHg 96%
    23:00 +4°C° 0 mm 1 mps 746 mmHg 96%
    Show more